Voltar ao catálogo

STARLINK-35400

AtivoComunicaçõesVLEO
NORAD 66333·PAYLOAD·🇺🇸 United States

Lançado Nov 6, 2025 de Cape Canaveral Space Force Station

Loading…

Próximas Passagens (próximas 24 horas)

TLE

AtualizadoSource: CelesTrak SupGP

Época: Sep 15, 2026, 04:16 UTC

1 66333C 25253Q   26258.17826389 -.00029193  00000+0 -10576-2 0  2589
2 66333  43.0002 222.8195 0001347 271.5847 286.4270 15.27587048    17

Acompanhe STARLINK-35400 em tempo real com AllMySat

Download on the App Store